www.pogodaiklimat.ru

Погода и климат >> Архив погоды >> Турция >> Бурса


ПОГОДА в Бурсе

  • Прогноз погоды в Бурсе
  • Монитор погоды в Бурсе

АРХИВ ПОГОДЫ в Бурсе

Время (UTC), дата Ветер
(напр.,м/с)
 
Видим.   Явления Облачность Т
(С)
Тd
(С)
f
(%)
Тe
(С)
Тes
(С)
Комфортность P
(гПа)
Po
(гПа)
Тmin
(С)
Tmax
(С)
R
(мм)
R24
(мм)
S
(см)
06 12.07 С 1
{3}
10 км 6/3 1050 м
[Cu hum Ac trans]
+21.5 +14.9 66 +25 +30 комфорт 1011.3 999.7 +15.6
07 12.07 В 2 15 км 3/3 1000 м
[Cu hum]
+22.6 +15.5 64 +27 +36 душно 1011.0 999.4
08 12.07 СВ 2 15 км 4/4 1000 м
[Cu med, cong]
+23.8 +14.0 54 +26 +36 жарко 1011.1 999.5
09 12.07 С 2
{5}
15 км 5/5 1050 м
[Cu med, cong]
+24.9 +11.7 44 +26 +36 жарко 1010.9 999.3
10 12.07 СЗ 4 20 км 5/5 1000 м
[Cu med, cong]
+26.3 +12.3 42 +28 +35 жарко 1010.7 999.1
11 12.07 СЗ 4 20 км 4/4 1000 м
[Cu med, cong]
+26.2 +12.2 42 +28 +36 жарко 1010.5 998.9
12 12.07 С 5
{7}
20 км 3/3 1050 м
[Cu hum]
+26.3 +10.3 37 +27 +34 жарко 1010.4 998.8
13 12.07 С 4 20 км 3/3 1000 м
[Cu hum]
+26.9 +11.7 39 +28 +34 жарко 1010.1 998.5
14 12.07 СЗ 5 20 км ясно +26.6 +11.8 40 +28 +33 жарко 1010.4 998.8
15 12.07 С 4
{7}
20 км ясно +25.8 +11.5 41 +27 +30 жарко 1010.5 998.9
16 12.07 С 3 20 км ясно +26.0 +11.3 40 +27 +28 жарко 1010.5 998.9
17 12.07 С 3 20 км ясно +24.4 +10.2 41 +25 +26 комфорт 1010.6 999.0
18 12.07 СВ 2
{7}
20 км ясно +22.3 +12.9 55 +25 +25 комфорт 1011.1 999.5 +27.6
06 13.07 СВ 1
{3}
15 км 4/0
[Ac trans]
+20.0 +13.3 65 +23 +30 комфорт 1011.9 1000.3 +15.4
07 13.07 СВ 2 15 км 3/0
[Ac trans]
+22.1 +12.7 55 +25 +35 комфорт 1011.7 1000.1
08 13.07 СВ 2 15 км ясно +24.9 +13.1 48 +27 +44 жарко 1011.6 1000.0
09 13.07 ЮВ 2
{3}
15 км 3/3 1200 м
[Cu hum]
+26.4 +9.6 35 +27 +41 жарко 1011.3 999.7
10 13.07 В 1 15 км 3/3 1000 м
[Cu hum]
+26.7 +10.3 36 +27 +44 жарко 1010.9 999.3
11 13.07 СВ 2 15 км 4/4 1000 м
[Cu med, cong]
+27.8 +9.5 32 +28 +40 жарко 1010.4 998.8
12 13.07 С 3
{6}
15 км 4/4 1050 м
[Cu med, cong]
+28.1 +9.7 32 +28 +37 жарко 1009.8 998.2
13 13.07 С 4 15 км 3/3 1000 м
[Cu hum]
+28.0 +8.7 30 +28 +34 жарко 1009.7 998.1
14 13.07 С 3 15 км 3/3 1000 м
[Cu hum]
+28.5 +9.1 30 +28 +33 жарко 1009.5 997.9
15 13.07 С 3
{7}
15 км 3/3 1200 м
[Cu hum]
+27.8 +9.9 33 +28 +31 жарко 1009.1 997.5
06 14.07 СВ 1
{2}
15 км 8/5 1050 м
[Cu med, cong Ac und]
+20.3 +13.8 66 +24 +26 комфорт 1006.1 994.6 +17.5
07 14.07 ЮЗ 2 15 км 8/5 1000 м
[Cu med, cong Ac und]
+20.9 +12.9 60 +24 +27 комфорт 1005.9 994.4
08 14.07 ЮЗ 2 8000 м слаб. ливневой дождь 9/5 600 м
[Cu med, cong Ac und]
+19.4 +15.5 78 +22 +26 комфорт 1006.3 994.7
09 14.07 З 1
{4}
8000 м слаб. ливневой дождь 9/5 900 м
[Cu med, cong Ac und]
+20.4 +14.6 69 +24 +29 комфорт 1005.7 994.1
10 14.07 СЗ 1 10 км в посл. час ливневой дождь 8/5 1000 м
[Cu med, cong Ac und]
+22.0 +13.4 58 +25 +32 комфорт 1005.4 993.8
11 14.07 З 2 10 км 8/5 1000 м
[Cu med, cong Ac und]
+22.4 +13.8 58 +26 +32 жарко 1005.3 993.7
12 14.07 ЮЗ 3
{4}
15 км {ливн. осадки} 8/5 1050 м
[Cu med, cong Ac und]
+22.2 +11.9 52 +25 +29 комфорт 1005.4 993.8 0.0
13 14.07 З 2 7000 м слаб. ливневой дождь 9/6 600 м
[Cu med, cong Ac und]
+20.0 +17.4 85 +23 +26 комфорт 1005.7 994.1
14 14.07 ЮЗ 2 7000 м слаб. ливневой дождь 9/6 600 м
[Cu med, cong Ac und]
+19.1 +16.5 85 +21 +23 комфорт 1006.1 994.4
15 14.07 ЮЗ 1
{4}
7000 м слаб. ливневой дождь 9/6 900 м
[Cu med, cong Ac und]
+18.6 +17.7 95 +21 +22 комфорт 1005.6 993.9
06 15.07 ЮЗ 2
{5}
15 км {ливн. осадки} 6/4 1050 м
[Cu med, cong Ac und]
+19.7 +17.4 87 +23 +26 комфорт 1008.5 996.8 +17.1 2
08 15.07 З 3 15 км 8/5 1000 м
[Cu med, cong Ac und]
+20.7 +16.3 76 +24 +29 комфорт 1008.5 996.8
09 15.07 З 2
{6}
15 км 8/5 1050 м
[Cu med, cong Ac und]
+21.7 +16.3 71 +25 +31 комфорт 1008.9 997.2
10 15.07 ЮЗ 2 15 км 8/5 1000 м
[Cu med, cong Ac und]
+22.0 +16.5 71 +26 +32 душно 1009.3 997.6
11 15.07 Ю 2 15 км 6/4 1000 м
[Cu med, cong Ac und]
+23.2 +15.6 62 +27 +37 душно 1009.4 997.8
12 15.07 ЮЗ 2
{6}
15 км 6/4 1050 м
[Cu med, cong Ac und]
+23.7 +15.3 59 +27 +34 жарко 1009.7 998.1
13 15.07 З 2 15 км 5/5 1000 м
[Cu med, cong]
+23.9 +14.9 57 +27 +33 жарко 1009.1 997.5
14 15.07 В 2 15 км 5/5 1000 м
[Cu med, cong]
+24.9 +15.3 55 +28 +32 жарко 1008.6 997.0
15 15.07 СВ 2
{4}
15 км 3/3 1050 м
[Cu hum]
+25.0 +10.0 39 +26 +29 жарко 1008.5 996.9
06 16.07 В 1
{2}
10 км ясно +21.0 +15.0 69 +25 +34 комфорт 1009.5 997.9 +14.3
07 16.07 СВ 2 10 км ясно +22.7 +14.9 61 +26 +38 жарко 1008.9 997.3
08 16.07 С 2 15 км ясно +24.5 +15.5 57 +27 +43 жарко 1008.6 997.0
09 16.07 СВ 3
{5}
15 км 3/3 1050 м
[Cu hum]
+26.1 +14.9 50 +29 +41 жарко 1008.1 996.6
10 16.07 С 2 15 км 3/3 1000 м
[Cu hum]
+26.9 +15.0 48 +30 +43 душно 1007.4 995.8
11 16.07 С 4 15 км 3/3 1000 м
[Cu hum]
+28.2 +13.6 41 +30 +40 жарко 1006.8 995.3
12 16.07 С 4
{6}
20 км 3/3 1050 м
[Cu hum]
+28.8 +12.1 36 +30 +37 жарко 1006.6 995.1
13 16.07 С 6 20 км ясно +28.3 +13.7 41 +30 +36 жарко 1006.2 994.7
14 16.07 С 6 20 км ясно +28.5 +14.3 42 +31 +34 душно 1005.9 994.4
15 16.07 С 6
{10}
20 км ясно +28.2 +14.0 42 +30 +32 жарко 1005.6 994.0
06 17.07 В 2
{5}
10 км 8/5 1050 м
[Cu med, cong Ac und]
+22.7 +17.4 72 +28 +30 душно 1005.7 994.2 +19.1
07 17.07 В 2 10 км 8/5 1000 м
[Cu med, cong Ac und]
+23.0 +17.7 72 +28 +32 душно 1006.1 994.6
08 17.07 В 2 10 км 8/5 1000 м
[Cu med, cong Ac und]
+22.3 +17.9 76 +27 +32 душно 1006.4 994.9
09 17.07 СВ 3
{5}
10 км 8/5 1050 м
[Cu med, cong Ac und]
+22.6 +17.6 73 +28 +33 душно 1006.0 994.5
10 17.07 В 3 10 км 8/5 1000 м
[Cu med, cong Ac und]
+23.3 +17.1 68 +28 +34 душно 1005.9 994.4
11 17.07 СВ 2 8000 м слаб. ливневой дождь 9/6 600 м
[Cu med, cong Ac und]
+22.2 +18.4 79 +27 +31 душно 1005.8 994.2
12 17.07 С 3
{5}
10 км в посл. час ливневой дождь 9/6 900 м
[Cu med, cong Ac und]
+21.9 +19.6 87 +27 +30 душно 1005.9 994.3 0.4
13 17.07 СВ 3 10 км 8/5 1000 м
[Cu med, cong Ac und]
+23.7 +18.2 71 +28 +31 душно 1005.5 994.0
14 17.07 СВ 2 10 км 8/5 1000 м
[Cu med, cong Ac und]
+23.9 +18.2 70 +28 +30 душно 1005.6 994.1
15 17.07 СВ 5
{8}
10 км 8/5 1050 м
[Cu med, cong Ac und]
+23.5 +17.5 69 +27 +28 душно 1005.9 994.3
06 18.07 СВ 4
{6}
15 км 4/4 1050 м
[Cu hum]
+23.9 +17.5 67 +28 +31 душно 1009.4 997.9 +18.1
07 18.07 СВ 3 15 км 5/5 1000 м
[Cu med, cong]
+24.3 +16.6 62 +28 +33 душно 1009.6 998.0
08 18.07 В 2 15 км 5/5 1000 м
[Cu med, cong]
+25.9 +14.7 50 +28 +36 жарко 1009.6 998.1
09 18.07 СВ 3
{6}
15 км 5/5 1050 м
[Cu med, cong]
+25.7 +14.2 49 +28 +36 жарко 1009.9 998.4
10 18.07 СВ 3 15 км 6/4 1000 м
[Cu med, cong Ac trans]
+27.3 +12.8 41 +29 +38 жарко 1010.0 998.5
11 18.07 В 4 15 км 5/5 1000 м
[Cu med, cong]
+26.7 +13.4 44 +29 +36 жарко 1010.1 998.6
12 18.07 В 3
{6}
15 км 5/5 1050 м
[Cu med, cong]
+28.0 +13.4 41 +30 +36 жарко 1009.9 998.4
13 18.07 В 3 15 км 5/5 1000 м
[Cu med, cong]
+27.9 +14.5 44 +30 +36 жарко 1010.1 998.6
14 18.07 СВ 4 15 км 5/5 1000 м
[Cu hum]
+28.1 +15.4 46 +31 +34 душно 1010.1 998.6
15 18.07 СВ 4
{7}
15 км 4/4 1050 м
[Cu hum]
+27.7 +15.7 48 +31 +32 душно 1010.0 998.5

 

Местоположение метеостанции Бурса (Турция): широта 40.18 долгота 29.07 высота над уровнем моря 100 м.

В архиве по умолчанию представлена погода в Бурсе за последнюю неделю. Архивные данные за месяц целиком и за предыдущие месяцы, начиная с января 2011 года, Вы можете получить, выбрав интересующий диапазон дат из раскрывающегося списка и нажав кнопку "Ввод!".


*Определитесь, кто Вы:
робот инопланетянин человек

Внимание! Время в таблицах - всемирное. Для получения местного времени необходимо прибавить поправку, которая равна 2 ч.

Смотрите также архив погоды в соседних городах и на ближайших метеорологических станциях:

Погода в Енишехире (Турция) (39 км)
Погода в Ялове (Турция) (57 км)
Погода в Биледжике (Турция) (77 км)
Погода в Стамбул городе (Турция) (80 км)
Погода в Аэропорту Сабихи Гёкчен (Турция) (83 км)
Погода в Гёльджюке (Турция) (84 км)
Погода в Стамбуле (Турция) (90 км)
Погода в Бандырм (Турция) (95 км)
Погода в Коджаэли (Турция) (97 км)
Погода в Базе Cengiz Topel (Турция) (105 км)

Пояснения к столбцам:

Ветер - указаны скорость ветра в м/с - средняя за 10 мин, порывы в срок и между сроками (в фигурных скобках) и направление, откуда дует ветер: С - северный, СВ - северо-восточный, В - восточный, ЮВ - юго-восточный, Ю - южный, ЮЗ - юго-западный, З - западный, СЗ - северо-западный.
Видимость - горизонтальная дальность видимости в метрах или километрах. При видимости от 1 до 10 км при отсутствии осадков обычно наблюдается дымка, при ухудшении видимости до 1 км и менее - туман. В сухую погоду видимость может ухудшаться дымом, пылью или мглою.
Явления - указаны атмосферные явления, наблюдавшиеся в срок или в последний час перед сроком; фигурными скобками обозначены явления, наблюдавшиеся между сроками (за 1-3 часа до срока); квадратными скобками обозначены град или гололедные отложения с указанием их диаметра в мм.
Облачность - указаны через наклонную черту общая и нижняя облачность в баллах и высота нижней границы облаков в метрах; квадратными скобками обозначены формы облаков: Ci - перистые, Cs - перисто-слоистые, Cc - перисто-кучевые, Ac - высококучевые, As - высокослоистые, Sc - слоисто-кучевые, Ns - слоисто-дождевые, Cu - кучевые, Cb - кучево-дождевые. Подробнее классификацию облаков см. в Атласе облаков (PDF).
T - Температура воздуха - температура, измеренная на высоте 2 м над землей.
Td - Температура точки росы - температура, при понижении до которой содержащийся в воздухе водяной пар достигнет насыщения.
f - Относительная влажность воздуха - влажноcть воздуха, измеренная на высоте 2 м над землей.
Te - Эффективная температура - температура, которую ощущает одетый по сезону человек в тени. Характеристика душности погоды. При расчете учитывается влияние влажности воздуха и скорости ветра на теплоощущения человека.
Tes - Эффективная температура на солнце - температура, которую ощущает человек, с поправкой на солнечный нагрев. Характеристика знойности погоды. Зависит от высоты солнца над горизонтом, облачности и скорости ветра. Ночью, в пасмурную погоду, а также при ветре 12 м/с и более поправка равна нулю.
P - Атмосферное давление - приведенное к уровню моря атмосферное давление.
Po - Атмосферное давление - измеренное на уровне метеостанции атмосферное давление.
Tmin - Минимальная температура - минимум температуры воздуха на высоте 2 м над землей.
Tmax - Максимальная температура - максимум температуры воздуха на высоте 2 м над землей.
R - Количество осадков - Количество выпавших осадков за период времени, мм. При наведении курсора мыши на число - период времени, за который выпало указанное количество осадков.
R24 - Количество осадков - Количество выпавших осадков за 24 часа, мм.
S - Снежный покров - Высота снежного покрова, см. При наведении курсора мыши на число - состояние снежного покрова и степень покрытия местности в баллах.